SL-14 DEB, 45295

Orbit data source: Space-Track

SL-14 DEB, 45295 is space debris in LEO originally from a launch on Thu, 15 Aug 1991 UTC launched from the Plesetsk Missile And Space Complex (PKMTR). Debris objects in space refer to the collection of defunct objects orbiting the Earth. Examples of debris include non-operational satellites, rocket bodies, and fragments generated from explosions, collisions, or faulty payload assembly.

Loading next visibility...
Identifier
45295, 1991-056AH
Orbit
LEO
Country
Flag of CISCIS
Related business
Manufacturer
Unknown
Mission
Spacecraft
Bus & Motor
Unknown
Mass
Unknown
Launch date (UTC)
1991-08-15 (34 years ago)
Launch vehicle
Unknown
Launch site
Plesetsk Missile And Space Complex (PKMTR)
Object type
Payload
Rocket body
Debris
Shape & HBR
Unknown
Radar Cross Section
Small (<0.1 m²)

Expand to show TLE details & history
Last TLE update: 2 days ago

TLE from 2 days ago
0 SL-14 DEB
1 45295U 91056AH  25241.17406371  .00001118  00000-0  20262-2 0  9994
2 45295  82.5701 300.2690 0079703 252.9198 106.3196 13.39042433268657
Epoch: 2025-08-29T04:10Z
TLE epoch observation values (Epoch: 2025-08-29T04:10:39.104Z)
Latitude
0.00004°
Longitude
-100.02043°
Altitude
1,132.904 km
Speed
7.278 km/s
True Right ascension
20h 01m 04s
True Declination
0° 00' 00"
Sunlit
Object was in full shadow at epoch
Visualization orbit readout
Latitude
Unknown
Longitude
Unknown
Altitude
Unknown
Speed
Unknown
Apparent Right ascension
Unknown
Apparent Declination
Unknown
Sunlit
N/A
Visualization observer readout
Local Sidereal Time
15:50:20
Azimuth
Unknown
Elevation
Unknown
Doppler factor
Unknown
Orbital elements
Apogee altitude
1,169.744 km
Perigee altitude
1,050.378 km
Semi-major axis
7,488.198 km
Eccentricity
0.00797
Inclination
82.5701°
RAAN
300.269°
Arg. of periapsis
252.9198°
True anomaly
107.19365°
Mean anomaly
106.3196°
Eccentric anomaly
106.75687°
Mean motion
3.34948 °/min
Orbital period
107.48 mins
BSTAR
0.0020262
Loading maneuver chart data...
Computing Atmospheric mass density...
Loading historical data...
Loading historical data...
Loading historical data...
Loading historical data...
Loading historical data...
Loading historical data...
Loading historical data...

Documentation

Showing up to 5 results
|